Location: Igri�s
(42.2144°N, 0.4320°W)
Time: 13:38:00
(UTC+00:00)

Cosmos 841 Rocket - Pass Details

Date: 13 August 2020
Orbit: 746 x 773 km, 74.0° (Epoch: 24 September)

Event Time Altitude Azimuth Distance (km) Brightness Sun altitude
Rises 21:39:41 0° 342° (NNW) 3,234 7.9 -24.2°
Reaches altitude 10° 21:42:04 10° 344° (NNW) 2,308 6.9 -24.4°
Maximum altitude 21:47:18 71° 69° (ENE) 814 3.4 -25.0°
Enters shadow 21:47:35 69° 94° (E) 822 3.4 -25.1°
